Location: Andiroba
(19.8650°S, 43.9258°W)
Time: 23:40:17
(UTC+00:00)

Cosmos 1447 Rocket - Pass Details

Date: 23 September 2024
Orbit: 954 x 995 km, 82.9° (Epoch: 14 October)

Event Time Altitude Azimuth Distance (km) Brightness Sun altitude
Rises 07:31:02 0° 188° (S) 3,677 7.5 -17.9°
Reaches altitude 10° 07:33:34 10° 189° (S) 2,719 6.8 -17.3°
Maximum altitude 07:39:46 74° 272° (W) 1,002 4.4 -15.9°
Drops below altitude 10° 07:45:51 10° 357° (N) 2,674 6.7 -14.5°
Sets 07:48:20 0° 359° (N) 3,612 7.4 -13.9°
